Regional Weather Roundup
Issued by NWS

Home | Current Version | Previous Version | Text Only | Print | Product List | Glossary On
Versions: 1 2 3 4 5 6 7 8 9 10 11 12 13 14 15 16 17 18 19 20 21 22 23 24 25 26 27 28 29 30 31 32 33 34 35 36 37 38 39 40 41 42 43 44 45 46 47 48 49 50
000
ASUS43 KLOT 190709
RWRIL

ILLINOIS REGIONAL WEATHER ROUNDUP
NATIONAL WEATHER SERVICE CHICAGO/ROMEOVILLE IL
200 AM CDT FRI OCT 19 2018

NOTE: "FAIR" INDICATES FEW OR NO CLOUDS BELOW 12,000 FEET WITH NO
SIGNIFICANT WEATHER AND/OR OBSTRUCTIONS TO VISIBILITY.

* THESE STATIONS ARE NOT UNDER NWS QUALITY CONTROL. THEY ALSO MAY NOT
  REPORT WEATHER SUCH AS PRECIPITATION OR FOG.

ILZ001-002-007-009-015-016-024-190800-
NORTHWEST ILLINOIS

CITY           SKY/WX    TMP DP  RH WIND       PRES   REMARKS
MOLINE         FAIR      50  36  58 S7        30.25F
SAVANNA*       FAIR      39  36  87 SE5       30.24S
$$

ILZ003-004-008-010-011-017-018-190800-
NORTH CENTRAL ILLINOIS

CITY           SKY/WX    TMP DP  RH WIND       PRES   REMARKS
ROCKFORD       FAIR      45  33  63 S9        30.26F
FREEPORT*      FAIR      44  34  67 SW9       30.26S
ROCHELLE*      FAIR      39  33  78 S5        30.27S
DE KALB*       FAIR      43  34  70 SW7       30.27R
PERU*          FAIR      43  35  73 S7        30.28F
$$

ILZ005-006-012>014-019>023-190800-
NORTHEAST ILLINOIS

CITY           SKY/WX    TMP DP  RH WIND       PRES   REMARKS
CHICAGO-OHARE  FAIR      46  32  58 SW10      30.25F
CHICAGO-MIDWAY MOCLDY    46  30  53 SW7       30.26F
AURORA         FAIR      42  33  70 S8        30.26F
LANSING*       FAIR      40  29  66 SW3       30.29F
JOLIET*        FAIR      39  35  84 SW3       30.28S
WAUKEGAN       FAIR      46  33  60 SW13      30.22F
DUPAGE AIRPORT FAIR      42  32  67 S5        30.25F
KANKAKEE*      FAIR      43  30  61 SW7       30.32S
WHEELING       FAIR      47  31  53 S6        30.26F
MORRIS*        FAIR      38  32  77 S5        30.28S WCI  35
ROMEOVILLE*    FAIR      38  33  82 S6        30.28F WCI  33
NORTHERLY ISL    N/A     48  29  48 SW6         N/A
$$

LMZ740>746-190800-
SOUTHERN LAKE MICHIGAN

STATION/POSITION SKY/WX   TEMP    WIND        PRES    VSBY  WAVE
                          AIR SEA DIR/SP/G                  HT/PER
                          (F)     (DEG/KT/KT) (MB)    (MI)  (FT/S)
SOUTHERN BUOY              56 57  230/ 19/ 21 1023.4F         4/ 5
WINTHROP HARBOR            52 53                N/A           1/ 3
WAUKEGAN HARBOR            51 53  260/ 16       N/A           1/ 3
WILMETTE HARBOR            52 57  220/ 14/ 17   N/A           2/ 2
HARRISON CRIB              55     230/ 19/ 24   N/A
NORTHERLY ISL              48     230/  5/  8   N/A
CALUMET HARBOR             48     210/  6/  9 1024.4F
BURNS HARBOR               46     190/  6/  8 1025.7F
MICHIGAN CITY              48     190/ 10/ 13   N/A
MICHIGAN CITY 6N           51 58  230/ 14/ 17   N/A           3/ 3
ST. JOSEPH                 53 57  250/ 14/ 17 1025.4          3/ 4
$$

ILZ025>027-034>036-040-047-049-050-058-095>099-190800-
WEST-CENTRAL ILLINOIS

CITY           SKY/WX    TMP DP  RH WIND       PRES   REMARKS
QUINCY         CLOUDY    48  34  58 S7        30.28F
GALESBURG*     FAIR      44  34  69 S5        30.29R
MACOMB*        CLOUDY    47  34  60 SW8       30.31R
JACKSONVILLE*  PTCLDY    45  32  61 S5        30.30F
PITTSFIELD*    CLOUDY    47  37  67 S6        30.30F
$$

ILZ028>032-037-038-041>044-048-051>054-059>061-190800-
CENTRAL ILLINOIS

CITY           SKY/WX    TMP DP  RH WIND       PRES   REMARKS
PONTIAC        FAIR      42  33  72 S6        30.30F
BLOOMINGTON    FAIR      44  32  62 SW10      30.31F
DECATUR        FAIR      41  30  65 S3        30.33F
PEORIA         FAIR      42  35  76 S5        30.29F
LACON*         FAIR      44  32  63 CALM      30.28F
LINCOLN*       FAIR      39  34  81 S3        30.31F
SPRINGFIELD    FAIR      41  34  76 S5        30.32F
TAYLORVILLE    FAIR      39  32  75 CALM      30.32F
$$

ILZ033-039-045-046-055>057-062-063-190800-
EAST-CENTRAL ILLINOIS

CITY           SKY/WX    TMP DP  RH WIND       PRES   REMARKS
CHAMPAIGN      FAIR      39  32  76 S8        30.33S WCI  33
DANVILLE*      FAIR      38  32  78 SW6       30.31S WCI  34
RANTOUL*       FAIR      41  34  77 SW5       30.33S
MATTOON        FAIR      41  34  76 S5        30.33F
PARIS*         FAIR      37  33  85 CALM      30.35F
$$

ILZ079-100>102-190800-
SOUTHWEST ILLINOIS

CITY           SKY/WX    TMP DP  RH WIND       PRES   REMARKS
ALTON          PTCLDY    39  38  96 CALM      30.33F
BELLEVILLE     FAIR      39  36  91 CALM      30.32F
CAHOKIA*       FAIR      40  36  86 CALM      30.33F
SPARTA*        FAIR      41  40  98 CALM      30.35F
$$

ILZ064>066-069>071-074>076-080>082-084>086-088>090-092>094-190800-
SOUTH-CENTRAL ILLINOIS

CITY           SKY/WX    TMP DP  RH WIND       PRES   REMARKS
CARBONDALE     FAIR      37  36  96 CALM      30.35F
CAIRO*         FAIR      39  39 100 CALM      30.35S
EFFINGHAM*     FAIR      37  35  96 CALM      30.36S
MARION         FAIR      38  37  97 CALM      30.36S
MT. VERNON     FAIR      32  32 100 CALM      30.35F
CENTRALIA*     FAIR      37  36  99 CALM      30.34F
SALEM*         FAIR      39  36  87 CALM      30.35S
METROPOLIS*    FAIR      39  38  95 CALM      30.36S
$$

ILZ067-068-072-073-078-083-087-091-190800-
SOUTHEAST ILLINOIS

CITY           SKY/WX    TMP DP  RH WIND       PRES   REMARKS
LAWRENCEVILLE  FAIR      38  34  85 CALM      30.36F
FLORA*         FAIR      37  36  96 CALM      30.35F FOG
FAIRFIELD*     FAIR      38  37  99 CALM      30.34F
HARRISBURG*    FAIR      36  36 100 CALM      30.36S
ROBINSON*      FAIR      32  32 100 CALM      30.36F
CARMI*         FAIR      34  34 100 CALM      30.35F
$$

ABBREVIATIONS USED IN REMARKS
   TC - TEMPERATURE IN CELSIUS
  WCI - WIND CHILL INDEX
   HX - HEAT INDEX
  VSB - VISIBILITY
$$




USA.gov is the U.S. government's official web portal to all federal, state and local government web resources and services.